Aérodrome :
LOGIN :

S'inscrire | Disclaimer

   EN    FR    IT 

 










Légende :    VFR   VFR Marginal   IFR   IFR Intensif   IFR Très Intensif
Visi : 
Plafond : 
>= 8 km
>= 3000ft
5 à 8 km
1000 à 3000 ft
1500m à 5 km
500 à 1000 ft
800 à 1500m
200 à 500 ft
< 800m
< 200 ft
Symboles :   Orages  Brouillard  Fortes neiges  Fortes précipitations  Vent > 20 kt
SIGMETs :   Divers  Orages  Givrage  Turbulence  Onde Orograph.  Cendres Volcan.






- Altitude de l'aérodrome : 8 ft
- Code IATA : PSD


HEPS - Port Said

DERNIER METAR :
  • 240600Z 36013KT 9999 SCT020 SCT025 13/09 Q1016 NOSIG

METARs EXPIRÉS :
  • 240500Z 35012KT 9999 SCT020 SCT025 12/09 Q1016 NOSIG
  • 240400Z 36008KT 9999 SCT020 SCT025 13/03 Q1016 RESHRA NOSIG
  • 240300Z 35010KT 9999 SCT020 SCT025 13/10 Q1017 RERA NOSIG

TAF TAF HEPS
Valide du 24 à 06h jusqu'au 25 à 12h UTC


240500Z 2406/2512 36010KT 6000 SCT025 SCT070
TEMPO 2406/2500 5000 RA BKN025 BKN070
PROB40 2406/2420 4000 TSSHRA SCT025CB



MET'MAP, la Météo Aéronautique d'un coup d'oeil ! - Copyright ORBIFLY Décembre 2007 - Disclaimer

ORBIFLY MET'MAP TEAM :

Programmation & Développement : Alexandra Zaïnal
Sur une idée originale de : Baudouin d'Aumeries
Assistance à la programmation : Marc-Olivier Méhu
Soutien technique & logistique : Manuel Goepfert

Contact : metmap@orbifly.com




SOURCES & CREDITS :

   NOAA